Wind_Speed
31 31 32 31 31 32 33 34 35 35 35 35 35 34 33 33 32 31 30 30 29 29 30 31 30 28 27 27 28 26 26 26 26 24 22 22 24 27 29 28 27 25 23 22 21 20 19 19 18 19 19 19 19 18 18 18 17 16 15 14 13 12 12 11 11 9 8 7 5 4 3 2 4 6 8 10 12 13 15 16 17 18 19 20 21
30 30 31 31 32 32 33 34 34 34 34 35 35 35 34 33 32 32 31 31 31 30 31 31 30 29 27 27 28 27 26 26 26 23 21 20 22 28 32 31 28 26 24 22 22 21 20 19 18 18 18 18 17 17 16 15 15 14 13 12 12 12 12 10 9 8 7 5 3 1 1 4 6 9 11 13 14 15 16 17 18 19 20 20 21
30 30 31 31 32 32 33 33 33 33 34 35 35 35 35 34 33 33 32 32 32 32 32 32 30 29 27 27 28 27 26 25 25 23 20 20 22 29 33 31 28 27 25 23 23 23 21 19 18 18 17 17 16 15 14 14 13 12 12 12 12 12 11 10 9 8 7 5 3 1 2 6 9 12 13 15 16 17 18 19 20 20 21 21 22
29 29 30 30 31 32 32 32 33 33 34 35 36 36 35 35 34 33 33 33 32 32 31 30 29 28 27 27 27 26 25 24 24 22 20 20 23 29 32 29 27 26 25 24 24 24 22 20 19 18 17 16 14 13 12 12 11 11 12 12 13 12 11 11 10 9 8 6 3 0 4 8 12 15 16 17 18 19 20 21 22 22 22 23 23
28 28 29 30 31 31 32 32 33 33 34 35 36 36 36 35 34 34 33 32 32 31 28 28 27 27 27 27 26 25 25 23 23 22 20 21 23 28 29 28 27 26 25 24 24 24 23 21 19 19 18 16 13 12 11 10 11 12 13 13 13 13 12 12 12 11 9 7 4 2 6 11 16 19 20 20 21 21 22 23 23 24 24 24 25
27 27 28 30 31 31 32 32 33 33 34 35 36 36 36 35 35 34 33 32 31 29 26 27 27 26 27 27 26 25 24 23 22 21 21 21 23 27 27 27 26 25 25 24 24 24 25 22 20 19 18 17 14 12 10 10 11 13 14 14 14 14 14 13 13 12 10 9 6 4 7 14 19 22 23 23 23 23 23 24 25 26 26 26 26
27 27 27 29 30 31 31 31 32 32 33 34 35 35 35 35 35 34 32 31 30 27 25 27 27 27 28 27 25 25 24 22 22 22 21 22 23 26 26 26 25 24 24 24 25 25 25 25 22 20 19 18 15 12 10 11 12 13 15 15 16 16 15 14 14 14 12 11 9 7 9 16 22 24 24 25 25 25 25 26 26 27 28 28 29
26 26 26 27 29 30 31 31 31 32 32 32 33 33 33 33 33 33 31 29 28 26 25 27 28 27 28 27 25 25 25 23 22 22 22 22 24 26 26 25 24 24 24 24 26 25 25 25 25 23 22 19 17 14 11 12 13 14 16 17 17 17 16 16 16 16 14 14 13 11 13 19 25 26 26 27 27 27 27 28 28 28 29 30 31
26 26 27 28 30 32 32 32 33 32 32 31 31 31 31 31 32 32 29 28 27 26 25 26 28 28 28 27 26 26 25 24 23 23 23 23 25 26 26 26 24 23 23 24 26 26 26 25 24 24 24 22 19 16 14 13 15 16 17 18 19 19 18 18 18 18 17 17 17 16 17 22 27 29 29 29 30 30 30 30 30 30 31 32 32
26 26 28 29 31 32 33 34 34 34 33 31 31 31 31 31 31 31 29 27 27 26 25 26 28 28 28 27 26 27 26 25 24 24 24 24 25 25 26 26 25 24 22 23 24 25 25 25 25 24 24 23 22 20 17 15 15 17 18 20 21 21 21 20 21 21 21 21 22 22 22 25 29 31 31 32 33 33 33 33 33 32 33 34 34
26 27 29 30 31 32 33 34 34 34 33 32 31 31 31 31 31 31 30 28 27 26 25 26 28 28 28 27 27 27 26 25 24 24 25 24 25 26 27 26 25 25 23 22 22 23 24 24 25 24 23 23 22 21 20 18 17 17 18 20 22 23 23 23 23 23 24 25 26 27 28 29 32 34 34 34 35 36 36 36 36 36 36 36 36
28 29 29 30 32 33 34 34 34 34 33 32 32 31 31 32 32 32 31 29 28 26 25 26 28 28 28 27 27 27 26 25 25 25 25 25 26 27 27 26 26 26 25 23 21 22 23 23 23 23 22 22 22 21 20 19 18 18 18 19 21 23 24 24 25 25 26 28 29 32 33 34 35 37 36 36 37 38 39 39 39 39 39 39 39
31 30 30 31 32 33 33 34 33 33 33 32 32 32 31 32 32 32 31 30 28 26 26 26 28 28 28 27 27 26 25 24 25 25 26 26 27 27 28 29 30 29 28 26 23 21 21 22 22 21 20 20 20 20 20 19 18 19 19 19 19 22 24 26 27 28 29 31 33 35 37 38 38 38 38 38 38 39 40 41 41 42 43 42 41
32 31 31 32 32 33 33 33 32 32 32 32 32 32 31 31 32 32 32 30 28 27 26 27 28 29 29 28 27 26 25 25 25 26 27 27 28 30 32 32 32 31 29 28 26 23 21 21 22 21 20 19 18 18 19 19 19 19 19 19 19 21 24 26 29 31 33 35 37 39 40 40 39 39 39 40 40 40 41 42 43 44 45 45 44
34 33 32 33 33 32 32 31 31 31 32 32 32 31 30 30 31 32 32 30 28 27 26 27 28 29 29 28 28 27 27 26 27 28 29 30 31 33 33 33 32 31 30 28 26 24 23 22 22 22 22 21 20 19 18 18 19 20 21 21 21 22 24 27 29 32 35 37 40 41 41 40 40 40 40 41 41 41 42 43 44 45 46 46 47
36 35 35 35 33 31 30 30 30 31 31 32 32 31 30 29 30 32 32 30 28 27 26 27 28 29 29 28 28 28 28 27 28 29 30 31 32 32 32 32 33 31 29 27 26 25 24 23 23 23 24 24 23 23 22 21 21 21 22 23 24 25 26 28 30 33 35 37 40 41 41 41 41 42 42 42 42 42 43 44 45 45 46 47 48
37 36 37 36 33 31 30 30 30 31 31 32 32 31 30 29 30 31 31 29 27 27 27 27 28 29 29 29 28 28 28 28 29 30 31 31 31 32 32 32 32 30 27 26 27 27 26 25 25 25 26 26 26 26 26 26 25 25 24 24 26 27 29 31 32 34 37 38 40 41 41 42 42 43 43 44 43 44 45 45 46 47 47 48 50
38 38 38 36 33 31 30 30 30 31 32 33 32 32 30 29 30 31 31 29 27 27 27 27 28 29 29 29 29 29 29 29 30 30 31 32 32 33 32 32 31 27 26 28 29 29 28 26 26 27 28 28 28 28 28 29 29 29 29 28 29 30 32 33 34 36 38 40 41 42 42 43 44 44 44 44 44 44 46 47 47 48 48 49 50
37 38 39 37 34 33 33 32 31 31 32 33 33 32 31 29 29 31 31 29 27 27 27 27 28 29 29 30 30 30 31 31 31 32 32 33 34 34 33 32 29 26 28 31 31 30 29 28 28 28 29 30 30 30 30 31 31 32 32 32 33 35 36 36 37 38 40 41 41 42 43 44 44 45 44 45 45 46 47 47 48 49 49 50 50
37 37 39 39 37 37 36 35 34 33 33 34 33 32 31 29 29 30 30 29 28 27 27 27 28 29 30 30 31 32 32 33 33 33 34 34 35 35 35 33 29 28 32 35 33 31 29 29 29 29 30 31 31 32 33 34 34 34 34 35 37 40 40 39 39 40 40 42 42 42 43 44 44 44 44 45 46 47 48 49 49 50 50 51 53
37 38 39 40 39 38 37 36 37 36 35 35 33 32 32 30 28 29 30 29 28 27 27 27 28 29 30 31 32 33 34 34 34 35 35 36 36 36 35 33 32 33 35 35 32 31 31 30 29 29 30 30 31 32 34 36 37 37 38 39 41 43 43 42 42 42 41 42 43 44 44 44 44 45 46 46 47 48 49 50 51 51 52 54 56
38 38 38 38 38 38 37 37 37 37 36 37 33 32 33 31 29 28 29 29 27 26 27 27 28 30 31 32 32 33 34 34 35 36 37 37 37 37 35 36 36 35 35 33 32 32 31 29 29 28 27 28 30 31 33 34 36 38 39 40 42 43 43 43 44 43 43 43 44 44 44 44 45 46 47 48 48 49 50 51 52 53 55 56 57
40 38 38 38 39 39 38 36 36 36 37 37 34 32 33 32 30 28 28 28 27 26 26 27 29 30 31 32 33 34 35 35 36 36 37 38 38 37 36 39 37 35 35 32 31 29 28 28 28 27 27 28 30 30 31 33 35 37 38 39 41 42 42 42 43 44 43 44 45 46 46 47 47 47 48 50 50 50 51 53 54 55 56 57 57
41 40 40 40 41 40 37 35 34 34 36 37 34 32 32 32 31 29 28 28 27 26 27 28 29 30 31 32 33 34 35 36 36 37 38 38 38 37 38 39 35 34 33 29 29 29 28 28 27 28 32 32 29 31 34 34 36 37 39 41 42 42 41 42 44 44 45 45 46 47 48 49 49 49 50 51 51 51 53 54 55 56 56 57 58
42 43 42 41 41 40 38 35 33 34 36 36 33 32 32 32 31 30 29 28 27 27 27 28 29 30 31 32 33 34 35 36 36 37 38 38 38 38 38 38 33 31 30 29 32 32 29 28 30 33 36 35 33 36 39 39 40 40 41 44 46 45 44 44 46 46 47 47 47 48 49 49 50 50 50 50 51 51 53 54 55 56 57 58 58
44 44 43 42 41 39 37 35 35 35 35 35 33 31 32 32 31 30 29 28 28 27 27 29 30 31 31 32 33 34 35 36 36 37 37 37 36 35 36 34 30 30 32 34 34 32 30 32 35 35 35 37 39 41 41 41 43 42 43 45 48 48 46 46 47 48 48 49 49 49 49 50 50 49 49 49 50 52 53 54 55 56 58 59 60
46 46 45 44 41 38 35 35 36 36 35 34 32 31 32 32 31 30 30 30 29 28 28 30 30 31 31 32 33 34 35 36 35 33 33 33 32 33 34 33 30 32 37 38 36 32 32 35 36 34 36 40 42 43 43 43 44 45 45 46 48 49 48 47 48 49 48 49 49 49 50 50 50 50 50 51 52 53 54 55 56 57 59 61 62
46 47 47 46 43 38 35 34 36 37 36 34 33 31 32 32 31 30 31 31 30 29 29 30 31 31 32 32 33 33 33 33 31 30 32 30 28 30 31 29 30 34 38 40 38 35 33 34 33 34 38 41 43 46 47 47 47 48 48 48 49 49 49 48 49 49 48 48 49 49 50 50 50 51 52 53 53 54 55 56 58 59 61 62 62
46 48 49 48 44 38 35 35 37 38 36 35 33 32 33 32 31 31 31 31 30 30 30 30 31 32 32 33 32 32 31 31 30 31 34 30 28 31 29 27 29 34 39 39 37 37 37 34 32 36 42 45 47 48 49 50 50 50 50 50 50 50 50 50 50 51 49 49 49 50 50 49 50 51 53 54 55 56 58 59 60 60 60 60 61
47 49 50 49 45 40 36 36 38 38 36 35 34 33 34 33 32 31 31 31 31 30 31 31 32 32 33 32 31 31 32 32 33 35 36 33 32 33 32 30 28 31 39 39 38 39 39 37 36 41 48 52 53 52 52 52 50 50 51 52 52 51 51 50 50 52 51 50 50 49 50 50 51 53 55 56 57 58 58 58 58 58 58 59 61
49 50 50 49 46 43 40 38 39 39 37 35 35 34 35 34 33 32 31 32 31 31 31 32 32 32 33 32 32 32 32 34 35 35 35 36 35 33 32 32 28 32 39 41 40 37 36 38 40 46 55 60 59 56 54 52 51 50 51 52 51 50 49 49 49 50 52 52 51 50 51 53 54 55 56 56 57 57 56 56 56 57 59 61 62
50 50 50 50 47 46 43 41 41 39 37 36 36 36 36 35 34 33 32 32 32 32 32 32 32 33 33 32 33 33 33 35 35 33 34 37 36 34 33 33 32 36 37 33 34 31 30 35 43 53 63 66 63 59 56 53 50 50 49 48 48 47 48 49 49 49 51 52 53 53 53 54 54 54 54 54 54 55 56 57 58 60 61 63 64
51 51 51 51 47 46 45 42 42 40 38 37 37 37 36 36 35 34 33 33 32 32 33 33 33 33 33 33 33 34 34 36 36 34 35 36 35 36 36 36 36 37 33 23 21 23 28 38 49 61 67 67 64 60 57 53 50 48 46 45 46 47 48 49 50 50 50 51 54 56 56 54 53 52 52 53 54 56 58 59 61 63 64 65 66
54 52 52 52 48 46 45 43 42 41 40 38 38 38 37 37 36 35 34 33 33 33 33 33 33 34 33 33 34 35 35 36 37 35 34 35 36 37 37 39 38 36 32 24 23 28 37 48 59 67 67 64 62 59 56 53 50 47 45 46 48 49 49 49 50 51 51 50 52 53 53 53 53 54 54 55 56 58 60 62 64 65 66 67 67
56 54 53 53 49 45 44 42 42 42 41 39 38 38 37 37 37 36 35 34 34 34 34 34 33 34 34 34 35 35 36 36 35 33 33 35 37 37 38 41 40 38 35 29 31 38 47 58 65 66 63 60 59 56 54 51 49 47 47 48 49 49 49 50 50 51 51 50 48 47 48 50 52 54 57 58 59 61 63 65 66 67 68 68 69
58 56 55 54 50 45 43 42 42 43 42 39 37 37 37 37 37 36 36 35 35 34 34 34 34 34 34 35 36 35 35 35 34 32 32 35 36 37 39 41 42 43 41 36 40 48 56 62 64 61 59 57 56 54 51 49 48 47 47 47 47 48 49 49 50 49 48 47 46 47 49 51 52 54 57 60 62 64 65 67 68 69 69 70 71
59 57 56 54 51 47 45 44 45 45 42 38 37 37 38 38 38 37 37 37 36 35 34 34 34 35 35 36 36 35 34 33 33 32 33 34 35 37 40 44 46 50 51 49 52 56 58 59 58 56 55 54 52 51 49 47 45 45 45 45 46 47 48 47 46 45 45 47 49 51 52 54 56 57 59 61 64 66 68 68 69 69 70 71 72
59 57 56 54 52 49 47 47 48 46 42 38 37 38 38 39 38 37 38 38 36 35 35 35 35 35 37 37 36 35 34 34 35 36 36 36 37 39 43 48 52 55 56 55 56 56 56 55 53 52 51 50 49 47 45 44 43 43 43 44 45 45 44 43 43 45 47 50 52 53 55 57 59 60 62 64 66 67 68 68 69 70 71 71 72
57 56 57 56 54 53 51 50 50 46 41 39 38 38 39 38 38 38 39 38 37 37 37 36 36 36 37 38 37 36 36 37 39 39 38 37 39 42 46 51 56 57 57 56 55 54 53 51 50 49 48 46 45 44 42 42 41 41 41 42 42 42 42 44 46 48 50 52 53 55 57 59 61 63 65 66 67 67 67 68 69 70 71 71 70
58 58 59 59 57 55 53 51 49 45 40 39 39 39 40 39 39 40 39 38 37 37 36 35 34 33 34 37 38 39 38 38 38 37 37 38 41 46 51 56 59 59 57 56 55 53 51 49 47 46 44 43 42 41 41 40 40 39 39 40 41 43 45 47 49 51 52 53 55 58 60 62 64 66 67 67 67 67 68 68 68 69 69 68 66
54 55 57 57 56 54 52 51 47 43 40 40 41 41 41 41 41 41 39 37 37 35 34 32 32 32 33 35 36 37 37 36 34 35 39 43 47 52 55 58 59 58 56 55 53 51 49 47 44 42 41 40 40 39 39 38 39 39 40 42 45 47 49 50 51 52 54 56 58 60 63 65 66 67 67 67 68 68 68 68 68 67 66 63 61
48 49 52 53 53 51 51 50 46 42 41 41 42 41 41 41 41 40 38 37 36 33 32 32 33 33 33 33 35 36 38 39 39 40 44 47 50 54 56 57 58 56 55 54 52 49 47 44 42 40 38 37 38 38 37 38 40 42 44 46 48 49 50 51 53 55 57 59 61 63 65 66 67 67 67 68 68 69 68 68 67 65 62 59 58
48 48 50 49 50 51 50 49 45 43 43 42 41 40 38 39 39 38 36 36 35 32 32 33 32 31 32 34 37 39 42 44 45 46 48 50 53 55 56 57 56 55 55 53 50 48 46 43 40 39 37 37 38 39 40 41 44 45 46 48 49 50 51 52 55 57 60 62 64 65 66 66 66 67 67 68 68 68 67 66 64 61 59 58 57
52 50 52 51 50 52 51 48 45 44 44 42 42 41 40 40 40 39 38 36 34 33 33 34 34 34 36 39 41 44 46 48 49 50 51 53 55 56 55 55 55 56 55 52 49 47 44 42 40 39 39 39 40 42 43 44 45 46 47 49 50 52 54 55 58 60 62 64 65 65 65 66 66 67 67 67 67 67 66 64 61 59 58 58 58
57 56 58 56 54 54 51 48 46 45 44 43 43 44 44 44 43 43 43 39 35 35 36 37 39 41 42 44 46 47 48 50 51 52 53 55 56 55 54 56 56 55 53 50 48 46 43 42 41 40 41 42 43 44 44 45 46 46 47 49 51 54 57 59 61 63 64 64 64 64 65 65 66 66 66 66 66 66 64 61 60 59 59 59 59
61 61 62 59 56 55 51 48 46 45 45 45 45 45 45 44 43 44 44 42 39 40 41 42 42 43 45 47 48 49 50 50 51 52 54 56 54 54 55 56 56 55 52 49 47 44 42 41 41 41 42 42 43 44 44 45 46 47 48 50 52 56 58 60 61 62 63 64 64 63 64 65 66 65 66 66 65 63 60 59 59 60 60 60 60
62 62 62 59 57 54 51 48 47 46 45 45 45 44 42 42 42 43 45 45 46 46 44 43 43 44 45 47 48 49 50 50 50 53 56 54 52 53 55 56 56 55 50 47 45 43 41 41 40 41 41 42 43 44 45 46 47 49 51 53 55 57 58 58 59 60 62 63 64 63 64 65 65 65 66 65 63 61 59 58 59 61 61 61 62
60 60 59 57 56 54 51 49 47 45 44 44 45 44 44 44 45 47 48 49 50 50 49 48 48 48 48 49 50 50 50 50 53 57 58 54 53 54 56 57 56 52 47 45 44 42 41 41 41 41 42 43 44 45 46 48 50 52 54 56 56 57 57 57 58 59 60 61 63 64 64 64 65 64 64 63 61 59 59 60 60 61 61 61 62
57 58 57 55 55 53 52 50 49 48 48 47 48 48 48 49 50 50 51 51 51 51 52 54 53 53 53 52 52 53 53 54 57 60 59 56 55 56 57 58 55 50 46 45 43 42 42 41 42 42 43 44 45 47 49 51 53 54 56 57 57 57 57 58 59 59 58 58 60 62 64 64 66 65 62 60 60 59 60 61 62 62 62 62 63
58 57 55 54 54 53 53 51 50 50 51 51 51 51 51 52 52 51 51 52 52 52 53 54 54 53 54 54 55 56 57 57 59 61 58 55 55 57 59 57 53 49 46 44 43 42 42 42 43 44 44 46 48 49 51 53 54 56 57 57 57 57 58 59 59 59 58 58 58 59 61 62 64 64 63 61 60 60 61 63 64 64 64 64 65
58 56 54 55 54 54 53 52 52 52 52 52 51 52 53 53 53 53 53 54 53 53 53 54 54 53 54 55 56 57 58 58 60 58 55 55 57 59 59 56 52 49 46 44 44 43 43 43 44 45 46 48 49 51 53 54 55 56 57 57 57 58 58 59 59 58 59 60 59 59 60 61 60 60 61 62 62 62 63 65 66 66 66 66 67
Wind_Direction
271 272 273 276 279 281 283 285 286 288 290 292 294 295 295 296 298 298 299 299 299 302 306 310 312 314 318 323 326 328 328 329 330 333 336 337 349 356 353 349 344 342 340 338 334 329 324 317 312 307 303 300 299 299 298 296 293 288 281 274 265 257 251 250 250 250 248 246 247 254 276 320 343 344 339 335 331 328 326 324 322 321 319 318 317
269 269 271 274 277 280 281 282 284 286 289 292 294 294 294 295 296 297 298 299 299 301 304 308 311 315 319 324 327 327 327 329 329 330 333 332 342 351 351 350 347 344 342 343 342 339 333 326 319 312 307 304 304 304 302 298 292 284 273 262 254 248 244 242 239 231 224 218 212 210 17 1 349 341 337 334 332 330 328 326 323 321 320 319 319
264 266 268 272 275 278 279 280 282 285 289 291 292 293 293 294 295 296 298 299 299 300 302 306 310 314 319 325 326 326 327 329 328 327 330 327 332 344 348 348 348 347 344 344 344 342 339 335 329 321 315 312 310 308 303 296 287 274 262 253 247 242 237 231 220 209 203 193 171 121 10 350 344 341 339 337 335 333 330 327 324 322 320 318 317
261 263 267 271 274 276 276 279 282 285 288 290 291 292 293 293 294 296 298 299 300 301 302 305 309 314 320 326 326 326 328 329 326 324 327 325 328 340 348 348 349 350 346 345 346 347 344 342 340 332 326 321 317 311 301 290 276 263 253 248 242 236 228 217 207 201 194 179 165 2 346 347 344 341 337 333 331 329 326 324 322 320 318 317 316
260 264 268 272 274 274 276 279 282 285 288 290 291 291 292 293 294 295 297 300 301 302 303 308 313 317 323 327 326 326 329 328 324 321 324 324 329 341 348 351 351 354 351 349 351 353 352 349 348 345 337 330 323 312 297 280 266 255 249 244 238 232 222 213 208 202 193 185 196 300 339 341 336 332 328 325 324 322 321 319 318 317 316 315 314
262 265 268 271 272 274 276 279 283 286 288 289 290 291 292 292 294 295 296 299 302 303 306 313 317 321 325 327 326 327 329 327 322 318 320 322 329 340 347 352 353 355 354 354 358 1 1 358 355 354 348 339 329 313 291 272 261 252 247 243 237 231 225 220 215 208 200 203 226 289 326 330 328 326 324 322 321 320 318 317 317 316 316 315 314
265 267 269 271 272 275 278 281 283 286 288 289 290 290 291 292 293 294 296 298 301 304 309 314 318 323 325 327 327 327 328 326 320 317 317 320 326 335 343 351 353 354 355 356 360 3 7 7 4 2 357 349 338 320 293 273 265 254 250 246 239 236 233 230 225 218 213 221 242 277 310 321 323 322 321 321 321 320 319 318 318 317 317 316 316
267 268 270 272 274 276 279 281 283 286 287 289 289 290 291 292 292 293 296 299 301 305 309 313 318 323 325 326 326 326 327 324 321 318 317 319 323 331 337 345 350 351 352 351 352 355 359 4 7 8 6 359 349 333 306 285 276 266 257 251 244 243 243 240 236 230 228 237 252 272 298 314 319 319 319 319 320 319 319 319 319 318 318 317 316
268 269 271 273 275 277 279 281 283 286 288 290 291 292 293 294 293 294 297 300 303 306 309 312 318 323 324 325 325 326 326 324 322 321 319 320 322 327 332 339 344 346 346 345 344 346 348 351 357 2 5 4 359 347 327 304 289 280 269 258 251 251 251 250 246 242 242 252 263 273 291 307 315 315 315 316 317 317 317 317 317 317 317 316 315
268 270 272 274 276 277 279 281 284 287 290 292 294 295 296 297 295 295 298 302 304 307 309 312 317 322 323 324 324 325 325 324 323 322 321 321 322 325 329 335 339 341 342 339 338 339 341 342 345 349 355 359 0 356 345 326 304 290 280 269 261 258 259 258 255 253 254 264 273 277 286 299 309 311 311 313 313 314 314 314 314 314 315 315 314
268 271 273 274 276 278 279 281 284 287 291 294 295 297 298 299 298 298 300 303 306 307 309 312 316 320 322 323 324 326 326 325 323 322 322 322 322 324 328 333 336 337 338 335 332 332 334 335 337 339 343 348 352 354 352 343 325 306 293 282 272 266 264 264 262 262 264 272 280 281 283 291 302 307 308 308 309 310 310 311 311 311 312 312 312
271 272 272 274 276 277 279 281 284 288 292 294 295 296 299 300 299 299 300 303 306 307 309 311 314 318 320 321 324 327 326 324 323 323 323 322 323 325 328 332 333 333 333 332 327 325 326 327 329 331 333 337 341 344 347 345 338 327 314 300 286 275 270 269 268 268 270 276 282 283 284 289 297 302 304 305 306 306 307 309 309 309 309 310 310
271 271 270 272 274 276 278 281 285 289 292 293 294 296 297 298 298 299 300 302 305 307 309 309 311 315 318 320 323 326 326 325 325 324 324 323 324 325 327 328 328 327 326 326 324 319 316 318 320 322 323 327 330 333 336 336 334 331 327 319 305 290 280 275 272 272 274 278 282 283 285 290 295 299 301 302 303 304 305 306 307 307 307 308 309
269 268 267 269 271 274 277 281 285 288 291 292 294 295 296 297 297 297 298 301 304 307 308 308 309 313 317 320 322 323 324 325 325 325 324 323 323 324 324 324 324 323 322 320 319 315 310 309 311 312 313 314 317 320 323 324 324 323 322 319 313 302 290 283 279 278 279 280 281 281 284 289 292 296 298 300 301 302 304 305 305 305 306 306 307
266 266 264 265 268 272 276 280 284 287 290 292 293 294 295 296 296 295 297 299 303 305 307 306 307 312 316 319 320 321 321 321 321 322 322 321 321 321 322 323 322 322 321 318 317 313 307 303 302 304 305 305 305 305 306 307 309 311 311 310 308 303 296 290 287 284 283 281 280 281 284 288 290 293 296 297 299 301 302 303 303 303 304 305 306
265 265 262 263 265 269 275 279 283 288 291 292 293 293 295 296 295 293 295 298 301 304 305 305 307 311 315 318 319 320 320 319 320 321 322 321 321 321 322 322 322 321 320 319 318 314 307 300 297 297 299 299 299 298 297 295 294 296 298 300 300 298 295 293 290 287 285 283 282 284 287 288 290 292 294 296 298 299 300 300 301 301 302 304 305
264 263 262 262 264 268 274 279 285 290 292 292 293 294 296 296 294 293 293 296 299 301 303 304 306 310 314 316 318 319 321 321 321 322 323 323 322 323 324 323 323 322 321 322 319 315 309 301 296 294 294 295 295 295 294 293 292 291 289 290 293 293 291 289 288 287 286 286 286 287 288 289 291 292 293 295 296 298 298 299 300 300 302 304 305
265 262 262 262 264 268 273 278 286 292 293 292 292 294 296 296 294 292 292 295 297 299 301 302 305 309 312 314 315 317 319 320 321 323 324 323 323 324 326 326 324 322 322 323 319 314 310 304 298 294 292 291 292 292 291 291 291 291 290 290 292 292 289 288 286 284 284 286 287 288 289 289 289 290 292 293 294 295 296 296 297 299 301 303 304
264 260 262 264 266 269 272 275 284 292 294 292 291 294 296 296 294 291 291 293 295 297 299 301 304 307 310 313 314 315 317 319 321 323 324 324 325 326 326 327 325 321 320 321 317 311 308 304 300 295 292 289 288 289 288 289 289 289 290 291 292 292 291 290 288 283 283 284 285 287 288 288 288 288 290 291 292 293 294 294 296 298 300 302 303
263 261 262 265 267 269 271 274 280 288 293 292 290 293 295 296 294 291 291 292 293 295 298 301 303 306 309 311 313 315 316 318 321 324 325 325 326 325 325 326 324 318 317 318 315 310 306 303 300 297 294 291 290 288 287 286 286 286 287 288 289 290 290 291 289 285 283 283 285 287 287 286 286 287 288 290 290 291 292 294 295 298 300 302 303
263 264 264 266 267 270 274 276 278 283 290 292 290 293 295 296 295 292 291 291 292 294 297 300 302 304 307 310 312 314 316 317 320 323 324 324 325 325 324 324 322 319 318 319 316 311 307 304 302 300 297 295 293 291 290 289 288 286 286 286 286 287 289 290 289 286 285 284 284 286 287 287 287 288 288 289 289 291 293 294 296 299 301 302 302
263 265 266 266 268 271 277 280 280 280 287 290 289 292 295 296 295 293 292 292 292 293 296 299 301 303 306 309 311 314 316 317 319 322 323 323 324 324 323 322 320 319 319 318 316 312 308 306 306 305 301 299 297 295 295 295 293 292 291 289 288 287 288 289 289 288 288 287 286 287 288 288 289 289 289 290 291 292 293 295 298 299 300 300 299
264 266 266 267 271 276 280 282 281 281 285 288 288 292 295 295 295 295 294 293 292 293 296 299 299 301 304 308 310 313 315 317 319 321 322 322 322 322 321 321 318 316 316 316 317 314 310 308 309 306 303 302 300 299 301 299 299 298 297 295 292 290 290 289 290 290 290 289 288 289 289 289 289 289 290 291 292 293 295 297 298 298 298 297 297
265 266 267 269 274 277 281 282 282 282 285 286 287 291 293 294 295 295 295 294 293 294 296 298 298 300 303 306 309 312 314 316 319 320 321 320 321 322 321 319 317 316 316 317 319 315 310 308 308 306 303 303 301 302 303 301 303 303 301 299 295 294 292 292 292 291 291 290 290 290 290 290 290 290 291 292 293 295 296 296 296 295 295 295 295
264 266 267 270 274 277 279 280 282 284 284 284 287 291 292 292 294 295 295 293 293 294 295 296 296 298 301 304 308 311 313 316 318 319 319 319 320 322 321 317 317 319 318 318 318 313 309 304 304 307 305 305 303 304 304 302 305 305 303 302 298 296 295 294 293 293 292 291 290 289 289 290 290 291 292 292 293 294 294 293 292 293 293 294 295
263 265 266 269 272 276 278 278 281 284 284 283 287 290 290 290 292 293 294 292 293 293 294 294 294 297 299 303 307 310 313 315 317 319 318 319 321 323 322 317 315 318 319 320 317 310 304 301 302 307 307 307 306 305 305 304 304 304 303 301 298 297 296 295 294 293 292 291 290 288 288 289 289 289 289 290 290 290 290 291 291 292 293 293 294
261 263 266 268 270 273 279 279 280 283 284 283 286 288 288 289 291 292 292 292 292 292 292 292 293 296 299 303 306 309 313 313 318 320 316 319 322 322 322 318 313 317 323 324 318 310 304 301 301 307 311 310 307 307 306 304 303 301 299 297 296 296 295 295 294 293 291 290 289 287 287 287 287 287 287 287 288 288 290 291 291 292 293 293 295
258 262 264 266 268 271 278 280 279 283 284 284 285 287 287 288 290 290 291 290 290 291 291 292 293 295 299 303 305 308 311 311 317 319 313 314 319 322 323 321 316 317 324 326 320 312 308 304 301 308 316 315 310 308 307 304 301 298 297 295 293 293 293 293 293 292 290 288 287 287 287 287 286 287 287 288 289 290 291 291 292 293 294 295 296
257 261 263 265 268 270 276 280 279 283 285 285 286 287 287 287 288 288 288 288 289 290 290 291 293 295 298 301 303 306 308 308 311 312 308 304 309 317 319 317 317 319 323 325 320 310 308 306 299 307 317 317 313 309 307 303 300 297 295 294 293 292 291 291 291 291 289 288 287 288 288 288 288 289 290 290 291 291 292 293 294 295 295 296 296
257 260 263 265 267 269 275 279 280 283 285 286 287 288 287 287 287 287 286 286 287 288 289 290 291 294 296 298 301 304 306 305 306 308 305 300 303 311 314 312 311 317 320 320 317 306 301 299 295 305 314 316 314 308 305 301 297 295 293 293 293 292 291 290 290 290 290 288 288 289 290 292 292 292 292 292 292 293 294 295 295 296 296 296 296
257 260 263 266 268 270 273 279 281 282 285 286 287 287 286 286 286 285 286 286 287 287 288 289 291 293 294 297 300 302 304 304 305 307 305 301 304 308 313 313 304 307 312 313 312 301 292 292 292 303 312 314 312 307 303 299 294 293 292 292 293 292 290 288 288 289 290 291 289 290 292 294 294 294 294 294 294 295 296 296 297 297 297 297 297
258 260 263 267 270 270 272 279 282 282 283 285 286 286 285 286 285 286 285 285 286 287 288 289 290 292 293 296 299 301 303 302 303 303 301 300 303 305 308 312 308 307 307 304 308 303 290 288 292 303 310 310 309 305 301 298 294 292 292 292 292 291 289 288 288 288 291 293 293 293 294 294 294 295 295 296 297 297 297 297 297 297 298 299 300
260 260 264 268 271 271 272 278 282 281 282 284 285 285 284 285 285 286 285 285 287 287 288 289 290 291 293 296 297 300 301 301 301 300 300 300 300 303 306 313 315 314 311 296 292 293 281 284 294 303 307 306 304 302 299 296 294 292 292 291 289 289 288 288 289 289 290 292 294 296 296 297 297 297 297 298 299 298 298 298 299 300 301 301 302
261 262 266 268 271 273 273 278 281 279 280 282 283 283 283 285 285 285 286 286 287 287 288 288 289 290 292 295 296 299 300 298 299 300 302 299 297 301 307 315 318 317 314 293 272 271 275 286 297 301 302 301 300 298 297 294 293 291 290 288 288 288 290 291 291 291 291 291 293 295 297 299 300 300 300 299 299 299 300 301 301 302 302 303 303
262 263 266 268 271 273 274 278 279 279 279 280 281 282 283 284 284 284 285 287 288 287 287 287 288 290 293 295 296 298 297 297 300 302 301 296 297 301 308 315 317 315 312 297 280 278 284 293 297 299 299 298 297 295 294 292 290 289 287 287 288 289 291 292 292 292 292 293 294 295 297 298 298 298 300 301 301 301 302 302 303 303 303 304 304
263 264 266 268 271 274 277 279 279 278 278 279 280 281 281 282 283 284 286 287 288 287 287 288 290 292 293 293 294 295 295 297 302 302 297 294 297 300 306 314 314 313 311 302 294 292 293 296 297 297 297 295 294 293 292 290 289 288 288 288 289 290 290 291 292 294 295 297 298 298 297 296 296 297 300 302 303 303 303 303 303 304 304 304 304
262 264 266 269 272 276 279 280 279 278 278 278 279 280 280 281 282 284 286 288 288 288 288 289 290 291 291 291 292 293 293 296 297 295 293 293 296 298 303 309 310 309 308 304 301 300 298 298 298 297 296 294 293 292 291 289 288 289 289 289 289 290 291 293 294 296 298 299 299 299 299 300 301 302 302 303 302 303 303 303 303 304 304 304 304
262 265 267 271 273 277 280 279 278 278 278 278 278 279 280 281 283 285 286 286 286 287 287 288 288 289 290 291 292 292 292 293 291 289 290 289 290 292 297 304 307 306 305 304 303 303 302 301 299 297 295 294 293 292 291 290 290 290 291 291 292 293 294 295 297 298 299 300 300 301 302 303 303 303 303 302 302 302 302 303 303 303 304 304 304
264 266 269 272 274 277 279 276 275 277 278 278 279 280 281 281 282 283 283 285 285 287 288 288 289 289 289 290 290 291 291 292 291 290 290 288 288 291 296 301 304 305 306 307 306 306 304 302 300 297 295 293 292 292 292 292 292 293 294 295 295 295 296 297 298 299 301 302 303 303 304 304 303 302 302 302 302 302 303 303 304 304 304 304 305
266 268 269 271 273 275 275 272 273 276 278 278 279 280 281 281 280 280 282 284 285 287 289 289 289 289 290 289 287 287 289 290 291 291 292 293 294 296 298 301 303 306 308 309 309 308 306 303 299 296 294 293 293 294 295 295 295 296 297 297 297 297 298 300 301 302 304 304 304 304 303 303 302 302 301 302 302 303 304 304 304 304 304 305 305
267 268 269 269 271 271 270 270 272 276 277 277 278 279 279 278 279 280 282 283 283 285 286 287 287 290 292 291 287 287 289 290 288 288 289 292 294 296 297 300 303 306 309 310 310 308 305 301 297 294 293 293 295 296 296 297 297 298 299 299 299 300 302 303 304 305 306 305 304 303 302 302 301 301 302 303 304 304 305 305 304 304 305 305 305
267 269 268 267 266 267 267 268 271 274 274 275 277 278 278 278 279 280 282 282 282 282 283 284 286 289 291 290 287 287 289 289 287 286 288 290 292 294 296 299 304 307 310 311 310 307 304 299 295 293 292 293 295 295 295 296 297 299 300 301 302 303 304 305 306 306 305 304 303 302 302 302 302 302 303 304 305 305 305 306 306 306 306 306 305
263 267 266 265 265 265 265 267 270 273 274 275 276 278 278 278 278 279 280 280 279 279 280 282 284 286 285 283 283 283 285 288 289 289 291 293 294 296 298 302 306 309 312 312 310 306 302 297 294 293 292 293 293 294 295 297 299 301 302 303 303 304 305 305 305 304 303 302 302 302 302 303 303 303 305 306 306 306 307 307 307 307 307 307 307
257 261 263 265 265 265 265 267 270 272 274 274 274 274 275 275 277 278 279 279 277 276 277 279 281 281 280 280 281 283 285 288 290 291 292 294 296 298 301 306 309 311 313 311 308 304 300 296 293 292 292 292 294 296 297 299 300 302 303 304 305 305 305 304 304 303 303 303 303 303 304 304 304 305 306 307 307 308 308 308 308 308 308 308 308
253 257 261 264 265 265 265 267 270 272 273 274 272 270 270 271 274 276 276 275 273 272 274 276 278 279 279 280 282 284 286 288 289 291 293 295 297 299 303 308 311 312 312 309 306 302 298 295 293 292 292 293 294 296 298 299 300 301 302 304 304 304 304 304 304 304 304 304 304 304 304 305 306 307 307 308 309 309 309 310 309 309 309 309 309
252 255 259 263 264 264 265 268 271 273 272 272 271 270 269 270 271 273 275 274 274 275 276 277 278 278 279 280 282 284 286 287 289 291 294 295 296 299 305 309 311 312 311 307 303 300 297 295 294 293 294 294 295 296 298 299 300 301 302 302 302 303 303 304 305 305 304 304 304 304 305 306 307 308 308 309 310 310 310 310 310 310 310 310 310
252 254 257 261 263 264 266 269 271 271 270 269 269 269 269 270 270 272 275 277 278 280 280 278 278 279 280 281 282 284 286 287 290 294 296 296 297 301 307 310 311 311 308 304 301 298 296 295 294 294 294 295 296 297 298 299 301 302 302 302 302 303 304 305 305 304 304 305 305 305 306 307 308 309 309 310 311 311 311 311 311 311 312 311 311
251 254 256 259 262 264 266 268 268 268 268 268 268 269 270 270 270 272 274 276 278 279 280 280 280 281 284 285 285 285 287 290 293 297 297 297 299 304 308 310 311 309 306 303 300 297 295 294 294 294 294 295 297 298 300 302 302 302 302 302 303 304 305 305 304 304 305 306 306 307 308 308 308 309 310 311 312 312 312 312 313 312 312 311 311
253 255 257 259 261 263 265 266 266 266 266 267 268 270 271 271 272 273 275 277 277 279 280 281 283 284 286 287 287 287 289 291 294 296 296 297 301 306 309 310 309 307 304 302 299 296 295 294 294 295 296 298 299 301 302 302 302 302 302 304 305 306 306 305 304 305 306 306 307 307 309 310 311 311 312 312 312 313 313 314 314 313 312 312 312
256 256 257 258 260 262 264 266 266 266 267 267 269 271 271 272 273 275 276 277 278 280 281 281 283 285 285 286 287 289 291 293 295 296 295 297 302 306 308 308 306 304 303 300 298 296 295 295 296 297 299 301 301 302 302 302 302 303 304 306 307 307 306 306 307 308 308 308 308 308 309 311 312 313 314 314 314 314 315 315 314 313 313 313 314
255 255 256 258 260 261 263 265 266 267 268 269 270 271 271 272 273 275 276 277 279 280 281 282 284 285 286 287 289 291 292 294 295 294 295 298 303 305 306 306 304 303 302 299 298 296 296 297 299 300 301 302 302 302 302 302 303 305 306 308 308 308 308 308 309 310 309 309 310 311 311 312 312 313 315 315 315 316 316 316 315 315 315 315 316
Height
10898 10899 10899 10899 10899 10898 10897 10896 10895 10894 10893 10893 10893 10892 10892 10891 10890 10889 10889 10889 10889 10888 10888 10888 10887 10886 10884 10882 10881 10881 10879 10877 10876 10874 10873 10871 10869 10867 10864 10862 10859 10856 10854 10851 10849 10846 10844 10842 10841 10839 10838 10836 10835 10834 10833 10832 10832 10831 10831 10830 10829 10829 10829 10828 10828 10828 10828 10828 10829 10829 10829 10829 10829 10828 10828 10827 10826 10825 10825 10824 10823 10822 10821 10820 10819
10897 10897 10897 10897 10897 10896 10896 10894 10893 10893 10892 10892 10891 10891 10890 10890 10889 10888 10888 10888 10888 10887 10886 10886 10885 10885 10883 10881 10880 10879 10878 10876 10874 10873 10872 10870 10868 10866 10864 10861 10859 10856 10853 10851 10848 10846 10843 10841 10839 10838 10836 10835 10834 10833 10832 10831 10831 10830 10830 10829 10829 10828 10828 10827 10827 10828 10828 10828 10828 10829 10829 10829 10828 10828 10827 10826 10825 10824 10823 10822 10822 10821 10820 10819 10818
10895 10895 10895 10895 10895 10895 10894 10893 10892 10892 10891 10891 10890 10889 10889 10888 10888 10887 10887 10887 10887 10886 10885 10884 10884 10883 10882 10880 10879 10878 10877 10875 10873 10872 10870 10869 10867 10865 10863 10861 10858 10856 10853 10851 10848 10845 10843 10841 10838 10837 10835 10834 10833 10832 10831 10831 10830 10830 10829 10829 10828 10827 10827 10827 10827 10827 10827 10828 10828 10828 10828 10828 10827 10826 10826 10825 10824 10823 10822 10821 10820 10819 10818 10817 10817
10892 10893 10893 10893 10893 10893 10892 10891 10891 10891 10890 10889 10888 10887 10887 10887 10887 10886 10885 10885 10885 10885 10883 10882 10882 10882 10881 10879 10878 10877 10876 10874 10872 10870 10869 10868 10866 10865 10862 10860 10858 10855 10853 10851 10848 10845 10843 10840 10838 10836 10835 10833 10832 10831 10831 10830 10830 10829 10829 10828 10827 10827 10826 10826 10826 10826 10827 10827 10827 10827 10827 10826 10826 10825 10824 10823 10822 10822 10821 10819 10818 10817 10816 10815 10814
10890 10891 10891 10891 10891 10891 10890 10890 10890 10890 10889 10888 10887 10886 10885 10885 10885 10885 10884 10883 10883 10883 10882 10880 10880 10880 10879 10878 10877 10875 10874 10873 10871 10869 10868 10867 10866 10864 10862 10860 10857 10855 10853 10851 10848 10845 10843 10840 10838 10836 10834 10833 10832 10831 10830 10830 10829 10829 10828 10827 10827 10826 10826 10825 10825 10826 10826 10826 10826 10825 10825 10824 10824 10823 10822 10821 10821 10820 10819 10817 10816 10815 10814 10813 10812
10888 10889 10889 10889 10889 10889 10889 10889 10889 10888 10887 10886 10885 10884 10884 10883 10883 10883 10883 10882 10881 10881 10880 10878 10878 10878 10877 10877 10876 10874 10873 10872 10870 10868 10867 10866 10865 10863 10861 10859 10857 10855 10853 10851 10848 10846 10843 10841 10838 10836 10834 10833 10831 10830 10830 10829 10829 10828 10828 10827 10826 10825 10825 10825 10825 10825 10825 10824 10824 10824 10823 10822 10822 10821 10820 10819 10818 10817 10816 10815 10814 10813 10812 10811 10809
10887 10887 10887 10887 10887 10887 10887 10887 10887 10886 10886 10885 10883 10883 10882 10882 10881 10881 10881 10880 10879 10879 10878 10877 10876 10876 10875 10875 10874 10873 10872 10870 10869 10867 10866 10865 10864 10862 10861 10859 10857 10855 10853 10851 10849 10846 10844 10842 10839 10837 10835 10833 10832 10831 10830 10829 10828 10828 10827 10826 10826 10825 10825 10825 10824 10824 10824 10823 10822 10822 10821 10820 10819 10819 10818 10817 10816 10815 10814 10813 10812 10811 10809 10808 10807
10885 10885 10886 10886 10885 10885 10886 10885 10885 10884 10884 10883 10882 10881 10880 10880 10879 10879 10879 10879 10878 10877 10877 10875 10874 10874 10874 10873 10873 10871 10870 10869 10868 10867 10865 10864 10863 10861 10860 10858 10856 10854 10853 10851 10849 10847 10845 10843 10840 10838 10836 10834 10832 10831 10830 10829 10829 10828 10827 10826 10826 10825 10825 10824 10824 10823 10823 10822 10821 10820 10819 10818 10817 10817 10816 10815 10814 10813 10812 10810 10809 10808 10807 10806 10804
10883 10884 10884 10884 10884 10884 10884 10883 10883 10882 10882 10881 10880 10879 10878 10878 10877 10877 10877 10877 10876 10875 10875 10873 10873 10873 10872 10871 10871 10870 10869 10867 10866 10865 10864 10863 10862 10860 10859 10857 10855 10854 10852 10851 10849 10847 10845 10843 10841 10839 10837 10835 10833 10831 10830 10830 10829 10828 10827 10826 10826 10825 10825 10824 10824 10823 10822 10821 10820 10818 10817 10815 10815 10815 10814 10813 10812 10811 10809 10808 10807 10806 10804 10803 10801
10882 10882 10882 10882 10882 10882 10882 10881 10881 10881 10880 10879 10878 10877 10876 10876 10875 10875 10875 10875 10874 10874 10873 10872 10871 10871 10870 10870 10869 10868 10867 10866 10865 10864 10863 10862 10860 10859 10858 10856 10854 10853 10851 10850 10848 10846 10845 10843 10841 10839 10837 10835 10833 10832 10831 10830 10829 10828 10827 10826 10826 10825 10825 10824 10823 10823 10821 10820 10818 10817 10815 10813 10813 10812 10812 10811 10809 10808 10806 10805 10804 10803 10802 10800 10799
10880 10880 10880 10880 10880 10880 10880 10879 10879 10879 10878 10877 10875 10875 10874 10873 10873 10873 10873 10873 10873 10872 10871 10870 10869 10869 10869 10868 10867 10867 10865 10865 10864 10863 10861 10860 10859 10857 10856 10855 10853 10851 10850 10848 10847 10845 10844 10842 10841 10839 10837 10835 10834 10832 10831 10829 10828 10827 10826 10825 10825 10825 10824 10823 10823 10822 10820 10819 10817 10815 10813 10812 10811 10811 10810 10808 10807 10805 10803 10802 10801 10800 10799 10797 10796
10878 10878 10878 10878 10878 10878 10877 10877 10877 10877 10876 10875 10873 10873 10872 10871 10871 10871 10871 10871 10871 10870 10870 10869 10868 10868 10867 10866 10866 10865 10864 10863 10862 10861 10860 10859 10857 10856 10855 10853 10852 10850 10848 10847 10845 10844 10842 10841 10840 10838 10837 10835 10834 10832 10831 10829 10828 10827 10825 10825 10824 10823 10823 10822 10821 10820 10819 10817 10815 10813 10811 10810 10809 10809 10808 10806 10804 10802 10800 10799 10797 10796 10795 10794 10793
10875 10876 10876 10876 10876 10875 10875 10875 10875 10874 10873 10873 10871 10871 10870 10869 10869 10869 10869 10869 10869 10869 10868 10867 10867 10866 10866 10865 10864 10863 10863 10861 10860 10859 10858 10857 10856 10854 10853 10851 10850 10848 10846 10845 10843 10842 10841 10839 10838 10837 10835 10834 10833 10832 10830 10829 10828 10826 10825 10824 10823 10822 10821 10820 10819 10818 10816 10815 10813 10811 10808 10807 10807 10806 10805 10803 10802 10800 10798 10796 10794 10792 10791 10790 10789
10873 10873 10874 10873 10874 10873 10873 10873 10873 10872 10872 10871 10870 10869 10869 10868 10867 10867 10867 10868 10868 10867 10866 10866 10865 10865 10864 10864 10863 10862 10861 10860 10859 10858 10856 10855 10854 10852 10850 10848 10847 10845 10844 10842 10841 10839 10838 10837 10836 10835 10833 10832 10831 10830 10829 10828 10826 10825 10824 10823 10822 10821 10820 10818 10817 10815 10814 10812 10810 10807 10806 10805 10804 10803 10802 10800 10799 10797 10795 10793 10791 10789 10787 10786 10784
10871 10871 10871 10871 10871 10871 10871 10871 10871 10870 10870 10869 10868 10867 10867 10866 10866 10866 10866 10866 10866 10866 10865 10864 10864 10863 10863 10862 10861 10860 10860 10859 10857 10856 10855 10853 10851 10849 10847 10845 10844 10842 10841 10839 10838 10837 10835 10834 10833 10832 10831 10830 10829 10828 10826 10825 10824 10823 10822 10821 10821 10820 10818 10816 10815 10813 10811 10809 10806 10804 10804 10803 10802 10801 10799 10797 10795 10794 10792 10789 10787 10786 10784 10782 10780
10868 10868 10868 10868 10869 10869 10869 10869 10869 10868 10868 10867 10866 10866 10865 10865 10864 10864 10864 10864 10864 10864 10864 10863 10862 10861 10861 10860 10860 10859 10858 10857 10855 10854 10852 10851 10849 10847 10845 10842 10841 10839 10838 10836 10835 10834 10833 10832 10831 10830 10828 10827 10826 10825 10823 10822 10821 10820 10819 10819 10818 10817 10816 10814 10812 10810 10808 10807 10804 10802 10802 10800 10799 10797 10796 10794 10792 10790 10788 10786 10784 10782 10780 10778 10776
10864 10865 10865 10866 10866 10867 10867 10867 10867 10866 10866 10865 10864 10864 10864 10863 10862 10862 10862 10863 10863 10862 10862 10861 10861 10860 10859 10858 10858 10857 10856 10855 10853 10852 10850 10848 10846 10844 10842 10840 10838 10836 10835 10834 10832 10831 10830 10829 10828 10827 10825 10824 10823 10822 10820 10818 10817 10816 10815 10815 10814 10814 10812 10810 10809 10807 10805 10804 10802 10800 10799 10798 10796 10794 10793 10791 10789 10787 10785 10782 10780 10778 10776 10775 10773
10861 10862 10861 10863 10864 10864 10864 10864 10865 10864 10864 10863 10863 10862 10862 10861 10861 10860 10860 10861 10861 10861 10861 10860 10859 10858 10857 10856 10855 10854 10853 10852 10851 10849 10848 10845 10843 10841 10839 10837 10835 10833 10832 10831 10829 10828 10826 10825 10824 10823 10822 10821 10820 10819 10817 10815 10814 10812 10812 10811 10811 10810 10808 10806 10805 10803 10801 10800 10799 10797 10796 10794 10792 10790 10789 10787 10785 10783 10781 10779 10777 10775 10773 10771 10769
10857 10858 10858 10860 10861 10861 10862 10862 10862 10862 10862 10861 10861 10860 10859 10859 10859 10858 10858 10859 10859 10859 10859 10859 10858 10857 10855 10854 10853 10852 10851 10850 10848 10847 10845 10843 10840 10838 10836 10834 10832 10831 10830 10828 10826 10825 10823 10822 10821 10820 10819 10818 10817 10815 10814 10812 10810 10809 10808 10808 10807 10805 10803 10802 10801 10799 10797 10796 10795 10793 10792 10790 10788 10786 10785 10783 10781 10779 10777 10775 10773 10771 10769 10767 10765
10854 10855 10856 10857 10858 10859 10859 10860 10860 10860 10860 10859 10859 10858 10857 10857 10857 10857 10857 10857 10858 10858 10857 10857 10856 10855 10853 10852 10851 10849 10848 10847 10845 10844 10842 10840 10837 10835 10833 10831 10830 10828 10827 10825 10823 10821 10820 10819 10817 10816 10815 10814 10813 10812 10810 10809 10807 10806 10805 10804 10802 10800 10798 10798 10797 10795 10793 10791 10790 10788 10787 10785 10784 10782 10781 10779 10776 10775 10773 10771 10769 10767 10765 10763 10761
10851 10852 10853 10854 10855 10856 10857 10857 10858 10858 10858 10857 10857 10856 10855 10855 10855 10855 10855 10855 10856 10856 10855 10855 10854 10853 10851 10850 10848 10847 10845 10844 10842 10840 10838 10836 10834 10832 10830 10828 10827 10825 10823 10822 10820 10818 10817 10815 10814 10813 10812 10811 10810 10809 10807 10805 10804 10802 10801 10800 10798 10796 10795 10794 10793 10791 10789 10787 10785 10784 10782 10781 10779 10777 10776 10774 10772 10770 10768 10766 10764 10763 10761 10758 10756
10849 10849 10850 10851 10852 10853 10854 10855 10855 10855 10855 10855 10855 10854 10853 10853 10853 10853 10853 10853 10854 10854 10854 10853 10852 10850 10849 10848 10846 10844 10842 10841 10839 10837 10835 10832 10830 10829 10827 10825 10823 10821 10819 10818 10817 10815 10814 10812 10811 10810 10809 10808 10807 10805 10804 10802 10801 10799 10798 10797 10794 10792 10792 10790 10788 10787 10785 10783 10781 10779 10778 10776 10774 10772 10771 10769 10768 10766 10764 10762 10760 10758 10756 10753 10751
10846 10846 10847 10848 10849 10850 10851 10852 10852 10853 10853 10852 10852 10851 10850 10850 10850 10851 10851 10851 10851 10851 10851 10851 10850 10848 10847 10846 10844 10842 10840 10838 10836 10834 10831 10828 10826 10825 10824 10822 10819 10817 10816 10815 10813 10812 10810 10809 10808 10807 10806 10805 10804 10802 10801 10799 10798 10796 10795 10793 10790 10788 10788 10787 10785 10784 10782 10780 10777 10775 10773 10771 10770 10768 10766 10764 10763 10761 10759 10757 10755 10753 10750 10748 10746
10843 10843 10844 10845 10846 10847 10849 10849 10850 10851 10851 10850 10850 10849 10848 10848 10848 10848 10849 10849 10849 10849 10849 10849 10848 10846 10845 10843 10842 10839 10837 10835 10833 10830 10827 10825 10823 10822 10820 10817 10815 10813 10812 10811 10810 10808 10807 10806 10805 10804 10802 10801 10801 10799 10797 10795 10794 10793 10791 10788 10784 10783 10783 10782 10781 10779 10778 10776 10773 10771 10769 10767 10765 10764 10762 10760 10758 10757 10755 10752 10750 10747 10745 10743 10740
10840 10840 10841 10842 10843 10844 10846 10847 10847 10848 10848 10847 10847 10847 10846 10845 10846 10846 10846 10846 10846 10847 10847 10846 10845 10844 10843 10841 10839 10837 10834 10832 10830 10827 10824 10822 10820 10818 10816 10813 10812 10810 10809 10808 10807 10804 10803 10802 10801 10800 10798 10798 10797 10795 10793 10791 10790 10789 10788 10784 10779 10777 10778 10777 10776 10775 10773 10772 10769 10766 10764 10762 10761 10759 10757 10755 10753 10751 10749 10747 10745 10742 10740 10738 10735
10836 10837 10838 10839 10841 10842 10843 10844 10845 10845 10846 10845 10845 10844 10843 10843 10843 10844 10844 10844 10844 10845 10844 10843 10843 10842 10840 10839 10837 10834 10831 10829 10827 10825 10822 10819 10818 10816 10813 10811 10809 10808 10806 10805 10802 10800 10799 10797 10796 10795 10794 10794 10793 10791 10789 10787 10786 10785 10785 10782 10775 10772 10773 10772 10770 10770 10769 10767 10765 10762 10760 10758 10756 10754 10752 10750 10748 10746 10744 10742 10739 10737 10734 10732 10729
10833 10834 10835 10836 10838 10840 10841 10842 10842 10842 10843 10843 10843 10842 10841 10840 10841 10841 10842 10842 10842 10842 10842 10841 10840 10839 10838 10836 10834 10832 10829 10826 10824 10823 10819 10817 10816 10813 10811 10808 10806 10805 10803 10801 10798 10796 10795 10793 10791 10791 10791 10790 10789 10786 10786 10784 10782 10780 10780 10778 10773 10770 10769 10768 10766 10765 10765 10762 10760 10758 10756 10753 10751 10749 10747 10745 10743 10741 10738 10736 10734 10732 10729 10726 10724
10830 10830 10832 10833 10835 10838 10838 10839 10839 10839 10840 10840 10840 10839 10838 10838 10839 10839 10839 10839 10840 10840 10839 10838 10837 10836 10835 10834 10832 10830 10827 10824 10822 10820 10817 10815 10815 10812 10809 10807 10804 10802 10800 10798 10795 10793 10792 10790 10788 10787 10787 10785 10783 10781 10780 10779 10777 10775 10773 10773 10771 10768 10766 10764 10762 10760 10761 10759 10755 10754 10752 10749 10747 10744 10742 10740 10738 10735 10733 10731 10728 10726 10723 10721 10718
10826 10826 10828 10830 10832 10835 10835 10836 10835 10835 10837 10837 10837 10836 10836 10836 10836 10836 10837 10837 10837 10837 10836 10835 10834 10833 10832 10831 10829 10827 10824 10821 10820 10818 10815 10813 10813 10811 10809 10806 10803 10800 10797 10795 10793 10790 10788 10787 10784 10783 10782 10780 10779 10777 10776 10774 10772 10769 10767 10766 10765 10765 10763 10761 10757 10755 10755 10755 10751 10749 10747 10745 10742 10740 10737 10735 10733 10730 10728 10725 10723 10721 10718 10716 10712
10823 10823 10824 10826 10829 10831 10832 10833 10832 10832 10834 10834 10834 10833 10832 10833 10833 10834 10834 10834 10834 10834 10833 10832 10831 10830 10828 10827 10826 10824 10821 10818 10816 10815 10812 10810 10809 10808 10806 10803 10801 10798 10793 10791 10791 10788 10784 10783 10781 10779 10779 10777 10775 10774 10772 10770 10768 10765 10763 10762 10761 10760 10759 10757 10754 10750 10749 10749 10748 10745 10742 10740 10737 10735 10732 10729 10727 10725 10723 10720 10718 10716 10713 10710 10707
10819 10819 10820 10822 10825 10827 10828 10829 10829 10829 10831 10831 10830 10830 10829 10830 10830 10831 10832 10832 10831 10831 10830 10829 10827 10826 10825 10824 10823 10821 10819 10815 10813 10811 10808 10805 10804 10804 10803 10801 10800 10798 10793 10789 10788 10784 10780 10778 10777 10775 10774 10774 10772 10770 10769 10767 10765 10763 10760 10758 10757 10755 10754 10752 10751 10748 10744 10742 10742 10741 10738 10735 10732 10730 10727 10724 10722 10719 10717 10715 10713 10710 10708 10705 10701
10815 10817 10817 10817 10821 10823 10825 10826 10826 10826 10827 10827 10827 10827 10826 10827 10827 10828 10829 10829 10828 10828 10827 10825 10824 10823 10822 10821 10820 10818 10816 10813 10810 10809 10806 10803 10802 10801 10801 10800 10799 10797 10794 10791 10786 10782 10778 10774 10772 10771 10770 10770 10769 10767 10765 10763 10761 10759 10757 10755 10753 10751 10750 10748 10747 10746 10743 10738 10734 10734 10734 10731 10728 10725 10722 10720 10717 10715 10712 10709 10707 10704 10701 10698 10694
10810 10813 10813 10813 10817 10819 10821 10823 10823 10823 10824 10824 10824 10823 10823 10824 10824 10825 10825 10826 10825 10824 10823 10822 10821 10819 10818 10818 10817 10815 10814 10811 10808 10807 10804 10802 10800 10798 10798 10798 10797 10795 10792 10791 10787 10783 10779 10774 10771 10770 10768 10766 10765 10762 10760 10759 10757 10755 10754 10752 10750 10748 10746 10745 10743 10742 10741 10738 10732 10728 10726 10724 10722 10720 10718 10716 10712 10709 10707 10704 10701 10697 10694 10691 10688
10806 10809 10809 10809 10813 10816 10817 10819 10819 10819 10820 10820 10820 10819 10820 10821 10821 10822 10822 10822 10822 10821 10820 10818 10817 10816 10815 10815 10814 10812 10811 10808 10805 10804 10802 10799 10798 10796 10795 10794 10794 10793 10791 10790 10788 10785 10781 10776 10772 10769 10767 10764 10761 10758 10756 10754 10753 10751 10750 10748 10746 10745 10743 10741 10739 10737 10736 10736 10732 10727 10723 10719 10715 10712 10710 10710 10708 10704 10700 10697 10694 10690 10687 10684 10681
10801 10805 10805 10805 10809 10812 10813 10815 10815 10815 10815 10815 10816 10816 10817 10817 10818 10818 10818 10818 10818 10817 10816 10815 10814 10813 10813 10812 10811 10809 10807 10805 10803 10802 10800 10798 10796 10794 10792 10791 10791 10790 10790 10789 10787 10785 10781 10776 10771 10767 10763 10760 10757 10754 10752 10750 10749 10748 10746 10745 10743 10742 10740 10737 10735 10733 10731 10729 10728 10725 10722 10718 10714 10709 10705 10702 10701 10698 10694 10690 10687 10684 10680 10677 10674
10796 10799 10801 10801 10805 10808 10809 10810 10811 10810 10810 10811 10812 10813 10813 10814 10814 10814 10814 10814 10814 10813 10813 10812 10811 10810 10810 10808 10807 10806 10804 10802 10801 10800 10799 10796 10794 10791 10789 10788 10788 10787 10787 10786 10785 10782 10778 10772 10767 10763 10759 10756 10753 10750 10748 10747 10745 10744 10743 10742 10740 10738 10736 10734 10731 10729 10726 10723 10721 10719 10717 10715 10712 10709 10704 10698 10694 10691 10688 10685 10681 10677 10673 10670 10666
10792 10795 10797 10798 10801 10803 10804 10805 10805 10805 10805 10807 10808 10809 10809 10810 10811 10811 10811 10811 10810 10810 10809 10808 10808 10807 10806 10805 10804 10803 10801 10800 10798 10798 10797 10795 10792 10789 10786 10786 10785 10784 10783 10782 10780 10776 10772 10767 10762 10758 10755 10752 10749 10746 10745 10743 10742 10741 10740 10738 10736 10734 10732 10730 10727 10725 10722 10718 10716 10713 10710 10708 10705 10702 10699 10695 10690 10685 10682 10678 10675 10671 10667 10663 10659
10788 10791 10793 10795 10796 10798 10799 10800 10800 10800 10801 10802 10804 10805 10806 10807 10807 10807 10807 10807 10806 10806 10805 10804 10804 10803 10802 10801 10800 10799 10798 10797 10795 10794 10794 10791 10788 10786 10784 10783 10783 10781 10779 10777 10773 10769 10765 10761 10757 10754 10751 10748 10745 10743 10742 10740 10739 10738 10736 10734 10732 10730 10728 10725 10723 10721 10718 10715 10711 10707 10704 10701 10698 10695 10691 10688 10685 10681 10676 10672 10668 10664 10660 10656 10652
10785 10787 10789 10790 10791 10792 10794 10794 10794 10795 10797 10798 10800 10801 10802 10803 10803 10803 10803 10803 10803 10802 10801 10801 10800 10799 10798 10797 10796 10795 10794 10793 10791 10788 10787 10784 10781 10780 10780 10779 10778 10776 10773 10771 10767 10763 10759 10756 10753 10750 10747 10745 10742 10740 10739 10737 10735 10734 10733 10731 10728 10725 10723 10721 10719 10716 10713 10710 10706 10702 10699 10695 10692 10689 10685 10682 10678 10675 10671 10667 10663 10657 10653 10649 10645
10782 10784 10784 10785 10786 10787 10788 10789 10790 10792 10793 10795 10796 10797 10799 10799 10799 10799 10799 10799 10799 10798 10797 10797 10796 10796 10795 10793 10792 10791 10791 10790 10788 10784 10780 10776 10773 10773 10773 10773 10771 10770 10767 10764 10761 10757 10754 10751 10748 10746 10744 10741 10739 10737 10735 10733 10732 10731 10729 10727 10724 10721 10719 10717 10713 10710 10707 10704 10700 10697 10693 10689 10686 10682 10679 10675 10672 10669 10665 10661 10657 10652 10647 10642 10638
10779 10780 10780 10780 10780 10781 10783 10785 10786 10788 10790 10791 10792 10793 10794 10794 10794 10795 10796 10796 10795 10794 10793 10793 10792 10792 10792 10790 10788 10787 10787 10787 10786 10784 10779 10775 10772 10771 10770 10769 10767 10765 10762 10759 10756 10753 10750 10747 10745 10742 10741 10738 10736 10734 10733 10730 10728 10727 10725 10722 10719 10716 10714 10711 10708 10705 10702 10698 10695 10691 10687 10683 10679 10676 10672 10669 10665 10662 10658 10654 10650 10647 10642 10637 10632
10775 10776 10775 10774 10775 10777 10779 10780 10783 10785 10786 10787 10788 10789 10789 10789 10790 10791 10792 10791 10790 10790 10790 10789 10788 10788 10788 10787 10785 10784 10783 10782 10782 10781 10779 10776 10773 10770 10769 10767 10764 10761 10758 10755 10752 10749 10746 10743 10741 10739 10737 10735 10733 10731 10730 10727 10724 10722 10720 10717 10714 10711 10709 10706 10702 10699 10696 10692 10689 10685 10681 10678 10673 10669 10666 10662 10658 10654 10650 10646 10642 10639 10635 10631 10627
10771 10771 10770 10770 10771 10773 10774 10776 10779 10781 10781 10783 10785 10785 10786 10785 10786 10786 10787 10787 10786 10786 10785 10785 10785 10784 10784 10783 10782 10780 10779 10778 10777 10776 10775 10772 10770 10767 10765 10762 10759 10756 10753 10750 10747 10744 10742 10739 10737 10735 10734 10732 10729 10727 10725 10723 10720 10718 10715 10713 10710 10706 10704 10702 10697 10694 10691 10687 10683 10679 10675 10671 10667 10663 10659 10655 10651 10647 10643 10639 10635 10631 10628 10624 10621
10766 10766 10765 10766 10767 10768 10770 10773 10775 10776 10778 10780 10781 10781 10781 10781 10781 10782 10783 10782 10782 10782 10781 10781 10780 10780 10780 10779 10778 10777 10776 10774 10772 10771 10769 10767 10765 10762 10760 10757 10754 10751 10747 10745 10742 10740 10737 10735 10733 10732 10730 10728 10726 10723 10721 10719 10717 10714 10711 10708 10704 10701 10698 10696 10692 10688 10685 10680 10676 10673 10669 10665 10661 10657 10654 10649 10645 10640 10636 10632 10628 10625 10621 10618 10614
10760 10760 10760 10762 10763 10763 10766 10769 10771 10773 10774 10776 10777 10776 10777 10777 10778 10778 10778 10778 10778 10777 10777 10777 10776 10776 10775 10774 10774 10773 10772 10771 10769 10767 10765 10762 10760 10757 10755 10752 10749 10746 10743 10740 10738 10735 10733 10731 10729 10728 10726 10724 10722 10719 10717 10715 10712 10710 10708 10704 10700 10696 10693 10689 10685 10681 10677 10674 10670 10666 10662 10659 10655 10651 10647 10643 10639 10634 10630 10625 10621 10617 10614 10610 10607
10755 10755 10756 10759 10760 10760 10762 10766 10768 10769 10769 10771 10771 10772 10772 10773 10774 10774 10773 10773 10774 10773 10772 10772 10772 10771 10770 10770 10769 10768 10767 10767 10765 10763 10761 10758 10755 10752 10750 10747 10744 10742 10739 10736 10734 10731 10729 10727 10725 10723 10721 10719 10717 10715 10713 10710 10708 10705 10703 10701 10697 10693 10689 10685 10681 10676 10671 10667 10664 10661 10656 10652 10649 10645 10641 10637 10633 10629 10624 10620 10615 10611 10607 10603 10599
10749 10750 10753 10756 10756 10756 10759 10762 10764 10764 10765 10766 10766 10767 10768 10768 10769 10769 10768 10768 10769 10769 10768 10768 10767 10767 10766 10765 10764 10763 10762 10761 10760 10758 10756 10753 10750 10747 10745 10743 10740 10737 10735 10732 10730 10727 10725 10723 10721 10719 10717 10715 10713 10710 10708 10705 10703 10700 10698 10695 10693 10689 10685 10682 10678 10673 10667 10661 10657 10655 10652 10647 10643 10639 10635 10630 10626 10622 10618 10614 10610 10605 10601 10596 10592
10745 10746 10750 10752 10751 10752 10756 10758 10759 10760 10761 10762 10762 10763 10764 10764 10764 10764 10764 10764 10764 10764 10764 10763 10763 10762 10762 10761 10759 10758 10757 10756 10754 10752 10750 10748 10745 10742 10740 10738 10736 10733 10731 10728 10726 10723 10721 10719 10717 10715 10713 10710 10708 10706 10703 10700 10697 10694 10692 10689 10686 10683 10680 10677 10673 10669 10665 10658 10651 10646 10644 10641 10637 10634 10630 10625 10620 10615 10611 10607 10604 10600 10595 10591 10587
10740 10741 10746 10748 10747 10748 10751 10753 10754 10755 10756 10757 10758 10758 10759 10758 10758 10759 10759 10759 10758 10759 10759 10757 10757 10757 10756 10756 10754 10752 10751 10750 10748 10746 10744 10742 10739 10737 10735 10733 10731 10729 10726 10724 10721 10719 10717 10715 10712 10710 10708 10706 10703 10700 10698 10695 10692 10689 10685 10682 10680 10677 10673 10670 10666 10663 10660 10657 10650 10643 10638 10633 10628 10625 10624 10620 10614 10609 10605 10600 10597 10593 10589 10585 10580
10735 10737 10741 10742 10742 10743 10745 10747 10749 10750 10751 10752 10753 10753 10753 10752 10753 10754 10754 10753 10753 10754 10754 10752 10752 10752 10751 10750 10748 10746 10745 10744 10742 10740 10738 10736 10734 10732 10730 10728 10726 10724 10722 10719 10717 10715 10712 10710 10708 10705 10703 10700 10698 10695 10692 10689 10686 10683 10679 10676 10673 10670 10666 10662 10659 10656 10652 10650 10647 10643 10637 10632 10625 10617 10613 10611 10607 10603 10598 10594 10589 10585 10582 10578 10573
10729 10733 10737 10736 10738 10739 10740 10742 10744 10745 10746 10747 10748 10748 10747 10747 10748 10749 10748 10748 10749 10749 10748 10747 10747 10747 10745 10744 10743 10741 10739 10738 10736 10734 10733 10730 10728 10727 10725 10723 10721 10719 10717 10714 10712 10710 10707 10705 10703 10700 10698 10695 10692 10690 10687 10683 10680 10676 10673 10670 10666 10662 10659 10655 10651 10648 10645 10641 10639 10636 10632 10628 10624 10617 10609 10603 10599 10596 10592 10587 10582 10578 10574 10570 10565